{"data":{"norad_id":65679,"epoch":"2026-05-24T23:58:07.186656Z","epoch_age_seconds":89255,"freshness":"FRESH","line1":"1 65679U 25212D   26144.99869429  .00024917  00000+0  85042-3 0  9992","line2":"2 65679  53.1591 351.4516 0000886  86.3856 273.7246 15.30206668 38876","mean_motion":15.30206668,"eccentricity":8.86e-5,"inclination_deg":53.1591,"raan_deg":351.4516,"arg_perigee_deg":86.3856,"mean_anomaly_deg":273.7246,"bstar":0.00085042,"rev_number":3887,"period_min":94.104935634747,"perigee_km":474.58795481616,"apogee_km":475.80236527492,"semimajor_km":6853.3321600455,"source":"CELESTRAK","updated_at":"2026-05-25T13:38:20.893956Z"}}